This is the latest recevied weather packets stored in our database for station/object KC1OEK-13. If no packets are shown the sender has not sent any weather packets the latest 10 day(s).
| Time | Temp. | Humidity | Pressure | Rain* | Wind** | Luminosity | Snow |
|---|---|---|---|---|---|---|---|
| 1778183431 | 16.11° C | 36% | 1009.5 hPa | 0 mm | - | 618 W/m² | - |
| 1778183127 | 17.22° C | 36% | 1009.3 hPa | 0 mm | - | 603 W/m² | - |
| 1778182823 | 16.67° C | 39% | 1009.5 hPa | 0 mm | - | 614 W/m² | - |
| 1778182521 | 16.11° C | 39% | 1009.5 hPa | 0 mm | - | 615 W/m² | - |
| 1778182217 | 15° C | 40% | 1009.7 hPa | 0 mm | - | 665 W/m² | - |
| 1778181914 | 15° C | 40% | 1009.7 hPa | 0 mm | - | 119 W/m² | - |
| 1778181610 | 15° C | 39% | 1009.8 hPa | 0 mm | - | 597 W/m² | - |
| 1778181306 | 16.11° C | 38% | 1009.9 hPa | 0 mm | - | 344 W/m² | - |
| 1778181003 | 16.11° C | 39% | 1009.9 hPa | 0 mm | - | 662 W/m² | - |
| 1778180700 | 15° C | 41% | 1009.9 hPa | 0 mm | - | 727 W/m² | - |
| 1778180399 | 16.11° C | 37% | 1009.9 hPa | 0 mm | - | 151 W/m² | - |
| 1778180096 | 15° C | 38% | 1009.9 hPa | 0 mm | - | 718 W/m² | - |
| 1778179793 | 16.67° C | 36% | 1009.9 hPa | 0 mm | - | 706 W/m² | - |
| 1778179491 | 16.67° C | 36% | 1010 hPa | 0 mm | - | 720 W/m² | - |
| 1778179189 | 15.56° C | 40% | 1010 hPa | 0 mm | - | 750 W/m² | - |
| 1778178885 | 16.11° C | 38% | 1010 hPa | 0 mm | - | 724 W/m² | - |
| 1778178582 | 16.11° C | 37% | 1010.3 hPa | 0 mm | - | 745 W/m² | - |
| 1778178278 | 16.11° C | 38% | 1010.2 hPa | 0 mm | - | 766 W/m² | - |
| 1778177974 | 16.11° C | 42% | 1010.3 hPa | 0 mm | - | 805 W/m² | - |
| 1778177671 | 15° C | 40% | 1010.3 hPa | 0 mm | - | 747 W/m² | - |
| 1778177368 | 15° C | 37% | 1010.3 hPa | 0 mm | - | 744 W/m² | - |
| 1778177064 | 15° C | 42% | 1010.4 hPa | 0 mm | - | 746 W/m² | - |
| 1778176760 | 14.44° C | 40% | 1010.5 hPa | 0 mm | - | 748 W/m² | - |
| 1778176457 | 15° C | 35% | 1010.3 hPa | 0 mm | - | 753 W/m² | - |
| 1778176155 | 15.56° C | 36% | 1010.5 hPa | 0 mm | - | 757 W/m² | - |
* Rain latest hour (hover to see other rain measurements)
** Current wind speed in m/s (hover to see current wind gust speed)